Torna al catalogo

OPS 4682 DEB

AttivoPO
NORAD 38365·DEBRIS·🇺🇸 United States

Lanciato Apr 3, 1965 da Vandenberg Space Force Base

Loading…

Prossimi Passaggi (prossime 24 ore)

TLE

AggiornatoSource: Space-Track

Epoca: Sep 13, 2026, 17:44 UTC

1 38365U 65027BS  26256.73899006  .00000771  00000-0  25565-2 0  9998
2 38365  90.2473 358.0247 0027631 106.1780 254.2385 12.99324645643819

Traccia OPS 4682 DEB in tempo reale con AllMySat

Download on the App Store